TimeEST,TemperatureF,Dew PointF,Humidity,Sea Level PressureIn,VisibilityMPH,Wind Direction,Wind SpeedMPH,Gust SpeedMPH,PrecipitationIn,Events,Conditions,WindDirDegrees,DateUTC
12:15 AM,32.5,31.1,94,29.54,1.0,SW,13.8,25.3,N/A,Snow,Light Snow,230,2013-03-06 05:15:00
12:35 AM,32.5,31.1,94,29.55,2.0,SW,13.8,21.9,N/A,Snow,Light Snow,220,2013-03-06 05:35:00
12:55 AM,32.2,30.9,95,29.55,0.8,SW,11.5,24.2,N/A,Snow,Light Snow,220,2013-03-06 05:55:00
1:15 AM,32.2,30.9,95,29.56,1.2,SW,13.8,23.0,N/A,Snow,Light Snow,230,2013-03-06 06:15:00
1:35 AM,32.0,30.4,94,29.57,1.0,SW,12.7,23.0,N/A,Snow,Light Snow,230,2013-03-06 06:35:00
1:55 AM,32.0,30.2,93,29.57,1.0,SW,11.5,18.4,N/A,Snow,Light Snow,220,2013-03-06 06:55:00
2:15 AM,31.8,29.8,92,29.58,1.2,SW,11.5,21.9,N/A,Snow,Light Snow,230,2013-03-06 07:15:00
2:35 AM,31.6,29.7,92,29.58,1.0,SW,12.7,17.3,N/A,Snow,Light Snow,220,2013-03-06 07:35:00
2:55 AM,31.1,29.3,93,29.58,1.2,SW,10.4,23.0,N/A,Snow,Light Snow,230,2013-03-06 07:55:00
3:15 AM,31.1,28.8,91,29.59,1.0,SW,12.7,19.6,N/A,Snow,Light Snow,230,2013-03-06 08:15:00
3:35 AM,30.9,28.8,92,29.59,1.2,SW,10.4,18.4,N/A,Snow,Light Snow,220,2013-03-06 08:35:00
3:55 AM,30.7,28.4,91,29.60,0.8,SSW,8.1,-,N/A,Snow,Light Snow,200,2013-03-06 08:55:00
4:15 AM,30.4,28.4,92,29.62,0.8,SSW,6.9,-,N/A,Snow,Light Snow,200,2013-03-06 09:15:00
4:55 AM,30.2,28.4,93,29.64,1.0,SSW,6.9,-,N/A,Snow,Light Snow,200,2013-03-06 09:55:00
5:15 AM,30.2,28.4,93,29.65,1.0,South,6.9,-,N/A,Snow,Light Snow,190,2013-03-06 10:15:00
5:35 AM,30.2,28.4,93,29.66,1.8,South,8.1,-,N/A,Snow,Light Snow,190,2013-03-06 10:35:00
5:55 AM,30.2,28.4,93,29.66,1.8,South,6.9,-,N/A,Snow,Light Snow,190,2013-03-06 10:55:00
6:15 AM,30.2,28.4,93,29.68,1.5,South,4.6,-,N/A,Snow,Light Snow,180,2013-03-06 11:15:00
6:35 AM,30.2,28.4,93,29.70,3.0,SSE,3.5,-,N/A,,Overcast,150,2013-03-06 11:35:00
6:55 AM,30.2,28.4,93,29.72,4.0,SSE,3.5,-,N/A,,Overcast,150,2013-03-06 11:55:00
7:15 AM,30.2,28.4,93,29.73,4.0,ESE,3.5,-,N/A,,Overcast,120,2013-03-06 12:15:00
7:35 AM,30.6,28.8,93,29.76,2.0,East,4.6,-,N/A,Snow,Light Snow,100,2013-03-06 12:35:00
7:55 AM,30.9,29.1,93,29.78,5.0,East,4.6,-,N/A,Snow,Light Snow,90,2013-03-06 12:55:00
8:15 AM,31.5,29.3,92,29.80,7.0,ENE,6.9,-,N/A,,Overcast,70,2013-03-06 13:15:00
8:35 AM,31.6,29.3,91,29.82,7.0,East,5.8,-,N/A,,Overcast,90,2013-03-06 13:35:00
8:55 AM,32.0,29.1,89,29.84,10.0,ENE,5.8,-,N/A,,Overcast,70,2013-03-06 13:55:00
9:15 AM,32.0,29.1,89,29.86,10.0,North,-9999.0,-,N/A,,Overcast,0,2013-03-06 14:15:00
9:35 AM,32.0,29.5,90,29.89,10.0,NE,4.6,-,N/A,,Overcast,40,2013-03-06 14:35:00
9:55 AM,32.0,29.3,90,29.90,10.0,NNE,5.8,-,N/A,,Overcast,20,2013-03-06 14:55:00
10:15 AM,32.5,29.5,88,29.92,10.0,NE,5.8,-,N/A,,Overcast,40,2013-03-06 15:15:00
10:35 AM,33.8,29.8,85,29.94,10.0,NNE,4.6,-,N/A,,Overcast,30,2013-03-06 15:35:00
10:55 AM,33.8,29.3,84,29.95,10.0,NE,4.6,-,N/A,,Overcast,40,2013-03-06 15:55:00
11:15 AM,34.2,29.1,82,29.96,10.0,North,5.8,-,N/A,,Overcast,10,2013-03-06 16:15:00
11:35 AM,34.3,29.1,81,29.98,10.0,NNE,5.8,-,N/A,,Overcast,30,2013-03-06 16:35:00
11:55 AM,34.7,29.5,81,29.99,10.0,North,8.1,-,N/A,,Overcast,10,2013-03-06 16:55:00
12:15 PM,35.6,29.3,78,29.99,10.0,North,5.8,-,N/A,,Overcast,10,2013-03-06 17:15:00
12:35 PM,35.8,28.9,76,30.00,10.0,North,5.8,-,N/A,,Overcast,360,2013-03-06 17:35:00
12:55 PM,36.3,29.8,77,30.01,10.0,NNW,5.8,-,N/A,,Overcast,340,2013-03-06 17:55:00
1:15 PM,36.3,29.3,76,30.01,10.0,NNE,4.6,-,N/A,,Overcast,20,2013-03-06 18:15:00
1:55 PM,36.5,29.5,76,30.02,10.0,NNW,3.5,-,N/A,,Overcast,340,2013-03-06 18:55:00
2:15 PM,37.0,30.2,76,30.03,10.0,WNW,4.6,-,N/A,,Overcast,290,2013-03-06 19:15:00
2:35 PM,37.4,30.2,75,30.04,10.0,NNW,6.9,-,N/A,,Overcast,340,2013-03-06 19:35:00
2:55 PM,37.0,30.4,77,30.05,10.0,North,4.6,-,N/A,,Overcast,350,2013-03-06 19:55:00
3:15 PM,37.4,30.4,76,30.06,10.0,NW,3.5,-,N/A,,Overcast,320,2013-03-06 20:15:00
3:35 PM,37.4,30.7,77,30.07,10.0,Calm,Calm,-,N/A,,Overcast,0,2013-03-06 20:35:00
3:55 PM,37.4,30.7,77,30.08,10.0,NNW,3.5,-,N/A,,Overcast,330,2013-03-06 20:55:00
4:15 PM,37.4,31.1,78,30.09,10.0,NNW,3.5,-,N/A,,Overcast,330,2013-03-06 21:15:00
4:35 PM,37.4,31.3,79,30.09,10.0,Calm,Calm,-,N/A,,Overcast,0,2013-03-06 21:35:00
4:55 PM,37.6,30.9,77,30.09,10.0,Calm,Calm,-,N/A,,Overcast,0,2013-03-06 21:55:00
5:15 PM,37.6,31.3,78,30.10,10.0,Calm,Calm,-,N/A,,Overcast,0,2013-03-06 22:15:00
5:35 PM,37.2,31.8,81,30.10,10.0,West,4.6,-,N/A,,Overcast,270,2013-03-06 22:35:00
5:55 PM,36.9,32.0,83,30.11,10.0,West,3.5,-,N/A,,Overcast,270,2013-03-06 22:55:00
6:15 PM,36.7,32.0,83,30.12,10.0,West,4.6,-,N/A,,Overcast,270,2013-03-06 23:15:00
6:35 PM,36.5,32.0,84,30.13,10.0,West,4.6,-,N/A,,Overcast,270,2013-03-06 23:35:00
6:55 PM,36.3,32.0,84,30.14,10.0,West,5.8,-,N/A,,Overcast,270,2013-03-06 23:55:00
7:15 PM,35.8,32.0,86,30.15,10.0,West,6.9,-,N/A,,Overcast,280,2013-03-07 00:15:00
7:35 PM,35.6,32.0,87,30.15,10.0,West,9.2,-,N/A,,Overcast,260,2013-03-07 00:35:00
7:55 PM,35.2,31.6,87,30.16,10.0,West,9.2,-,N/A,,Overcast,270,2013-03-07 00:55:00
8:15 PM,35.1,31.6,87,30.16,10.0,West,8.1,-,N/A,,Overcast,270,2013-03-07 01:15:00
8:35 PM,34.9,31.6,88,30.17,10.0,West,9.2,-,N/A,,Overcast,270,2013-03-07 01:35:00
8:55 PM,34.7,31.1,87,30.17,10.0,West,5.8,-,N/A,,Overcast,270,2013-03-07 01:55:00
9:15 PM,34.7,30.9,86,30.18,10.0,WNW,9.2,-,N/A,,Overcast,290,2013-03-07 02:15:00
9:35 PM,34.3,30.2,85,30.18,10.0,West,6.9,-,N/A,,Overcast,280,2013-03-07 02:35:00
9:55 PM,34.2,30.2,85,30.19,10.0,West,6.9,-,N/A,,Overcast,270,2013-03-07 02:55:00
10:15 PM,33.8,30.0,86,30.18,10.0,West,5.8,-,N/A,,Overcast,270,2013-03-07 03:15:00
10:35 PM,33.8,29.8,85,30.19,10.0,West,6.9,-,N/A,,Overcast,270,2013-03-07 03:35:00
10:55 PM,33.4,29.7,86,30.19,10.0,West,8.1,-,N/A,,Overcast,270,2013-03-07 03:55:00
11:15 PM,33.4,29.5,85,30.19,10.0,West,8.1,-,N/A,,Overcast,270,2013-03-07 04:15:00
11:35 PM,33.1,29.3,86,30.19,10.0,West,6.9,-,N/A,,Overcast,270,2013-03-07 04:35:00
11:55 PM,33.1,29.1,85,30.19,10.0,West,6.9,-,N/A,,Overcast,280,2013-03-07 04:55:00